Orbital Elements at Epoch 2459200.5 (2020-Dec-17.0) TDB
Reference: JPL 17 (heliocentric ecliptic J2000)
Element | Value | Uncertainty (1-sigma) | Units |
e | .1068909163110085 | 4.1648e-08 | |
a | 3.07582129130093 | 2.5889e-08 | au |
q | 2.747043935064863 | 1.2149e-07 | au |
i | 2.139000654758323 | 5.0584e-06 | deg |
node | 344.3208099761852 | 0.00011261 | deg |
peri | 289.4914870439293 | 0.00011533 | deg |
M | 146.4503015867498 | 2.715e-05 | deg |
tp | 2458398.955119210515 (2018-Oct-07.45511921) | 0.00014454 | TDB |
period | 1970.335014389085 5.39 | 2.4876e-05 6.811e-08 | d yr |
n | .1827100454343904 | 2.3068e-09 | deg/d |
Q | 3.404598647536996 | 2.8656e-08 | au |
|
| | Orbit Determination Parameters
Additional Information
|